EW7244 Weather Reports


time (UTC)temp
C
wind
direction
speed
KPH
gust
KPH
rain 1hr
cm
rain 24hr
cm
rain mn
cm
humidity
%
barometer
mb
20260510084550 15 140 0.0 0.0 0.00 0.18 0.00 79 1010.6
20260510083038 15 133 0.0 0.0 0.00 0.18 0.00 81 1010.7
20260510081532 15 136 0.0 0.0 0.00 0.18 0.00 80 1010.7
20260510080032 14 135 0.0 0.0 0.00 0.18 0.00 82 1010.9
20260510074526 13 138 0.0 0.0 0.00 0.18 0.00 82 1010.9
20260510073029 13 150 0.0 0.0 0.00 0.18 0.00 83 1010.9
20260510071534 13 140 0.0 0.0 0.00 0.18 0.00 82 1011.0
20260510070027 13 134 0.0 0.0 0.00 0.18 0.00 81 1011.1
20260510064524 12 146 0.0 0.0 0.00 0.18 0.00 88 1011.1
20260510063016 12 143 0.0 0.0 0.00 0.18 0.00 89 1011.0
20260510061513 11 145 0.0 0.0 0.00 0.18 0.00 89 1011.3
20260510060012 12 152 0.0 0.0 0.00 0.18 0.00 89 1011.3
20260510054516 11 229 0.0 0.0 0.00 0.18 0.00 89 1011.4
20260510053009 11 227 0.0 0.0 0.00 0.18 0.00 89 1011.5
20260510051515 11 227 0.0 0.0 0.00 0.18 0.00 88 1011.7
20260510050007 11 227 0.0 0.0 0.00 0.18 0.00 89 1011.8
20260510044509 11 227 0.0 0.0 0.00 0.18 0.00 90 1011.7
20260510043006 10 227 0.0 0.0 0.00 0.18 0.00 90 1011.9
20260510041606 10 227 0.0 0.0 0.00 0.18 0.00 90 1011.9
20260510040046 10 226 0.0 0.0 0.00 0.18 0.00 89 1011.8
20260510034545 10 227 0.0 0.0 0.00 0.18 0.00 88 1011.7
20260510033041 10 227 0.0 0.0 0.00 0.18 0.00 88 1011.8
20260510031540 11 228 0.0 0.0 0.00 0.18 0.00 88 1011.9
20260510030046 11 227 0.0 0.0 0.00 0.18 0.00 88 1012.1
20260510024550 11 221 0.0 0.0 0.00 0.18 0.00 88 1012.2
20260510023036 11 250 0.0 0.0 0.00 0.18 0.00 88 1012.2
20260510021534 11 250 0.0 0.0 0.00 0.18 0.00 88 1012.4
20260510020032 11 260 0.0 0.0 0.00 0.18 0.00 87 1012.6
20260510014531 11 260 0.0 0.0 0.00 0.18 0.00 87 1012.6
20260510013030 11 260 0.0 0.0 0.00 0.18 0.00 86 1012.6
20260510011534 11 260 0.0 0.0 0.00 0.18 0.00 87 1012.5
20260510010036 11 260 0.0 0.0 0.00 0.18 0.00 86 1012.6
20260510004525 11 260 0.0 0.0 0.00 0.18 0.00 86 1012.6
20260510003025 11 231 0.0 0.0 0.00 0.18 0.00 86 1012.7
20260510001525 11 231 0.0 0.0 0.00 0.18 0.00 86 1012.7
20260510000021 12 231 0.0 0.0 0.00 0.18 0.00 86 1012.6
20260509234520 12 231 0.0 0.0 0.00 0.18 0.00 87 1012.7
20260509233019 11 231 0.0 0.0 0.00 0.18 0.00 87 1012.8
20260509231527 12 231 0.0 0.0 0.00 0.18 0.00 85 1012.7
20260509230019 12 237 0.0 0.0 0.00 0.18 0.00 86 1012.8
20260509224516 12 236 0.0 0.0 0.00 0.18 0.00 86 1012.9
20260509223014 12 237 0.0 0.0 0.00 0.18 0.00 86 1012.9
20260509221523 12 237 0.0 0.0 0.00 0.18 0.00 86 1012.8
20260509220004 12 236 0.0 0.0 0.00 0.18 0.00 86 1012.6
20260509214505 12 236 0.0 0.0 0.00 0.18 0.18 86 1012.5
20260509213005 12 236 0.0 0.0 0.00 0.18 0.18 87 1012.4
20260509211504 12 238 0.0 1.6 0.00 0.18 0.18 87 1012.4
20260509210003 12 238 0.0 0.0 0.00 0.18 0.18 87 1012.4
20260509204503 12 238 0.0 0.0 0.00 0.18 0.18 89 1012.4
20260509203002 12 238 0.0 0.0 0.00 0.18 0.18 89 1012.3
20260509201555 12 242 0.0 0.0 0.00 0.18 0.18 89 1012.3
20260509194554 12 247 0.0 0.0 0.00 0.18 0.18 91 1012.4
20260509193103 13 249 0.0 0.0 0.00 0.18 0.18 91 1012.2
20260509191611 13 247 0.0 0.0 0.03 0.18 0.18 91 1012.2
20260509190105 13 246 0.0 0.0 0.08 0.18 0.18 92 1011.8
20260509184551 13 230 0.0 0.0 0.15 0.18 0.18 91 1011.7
20260509183050 13 228 0.0 0.0 0.18 0.18 0.18 91 1011.7
20260509181549 14 227 0.0 0.0 0.15 0.15 0.15 89 1011.5
20260509180050 15 264 0.0 0.0 0.10 0.10 0.10 86 1011.5
20260509174548 16 265 0.0 0.0 0.03 0.03 0.03 80 1011.4
20260509173056 16 265 0.0 0.0 0.00 0.00 0.00 75 1011.2
20260509171559 17 266 0.0 0.0 0.00 0.00 0.00 75 1011.1
20260509170046 17 266 0.0 0.0 0.00 0.00 0.00 75 1010.9
20260509164550 16 266 0.0 0.0 0.00 0.00 0.00 74 1010.9
20260509163051 17 267 0.0 0.0 0.00 0.00 0.00 76 1010.8
20260509161548 17 269 0.0 0.0 0.00 0.00 0.00 75 1011.0
20260509160053 17 269 0.0 0.0 0.00 0.00 0.00 76 1011.0
20260509154547 18 267 0.0 0.0 0.00 0.00 0.00 72 1011.1
20260509153043 18 273 0.0 0.0 0.00 0.00 0.00 68 1011.2
20260509151537 20 30 0.0 0.0 0.00 0.00 0.00 59 1011.2
20260509150040 20 221 0.0 0.0 0.00 0.00 0.00 59 1011.2
20260509144556 20 219 0.0 0.0 0.00 0.00 0.00 53 1011.1
20260509143056 21 250 0.0 0.0 0.00 0.00 0.00 50 1011.2
20260509141551 20 261 0.0 0.0 0.00 0.00 0.00 55 1011.1
20260509140059 20 201 0.0 0.0 0.00 0.00 0.00 56 1011.2
20260509134601 20 215 0.0 0.0 0.00 0.00 0.00 55 1011.2
20260509133049 21 132 0.0 0.0 0.00 0.00 0.00 53 1011.1
20260509131601 21 163 0.0 1.6 0.00 0.00 0.00 50 1011.0
20260509130104 21 9 0.0 0.0 0.00 0.00 0.00 49 1011.1
20260509124552 21 240 0.0 0.0 0.00 0.00 0.00 49 1011.2
20260509123047 21 79 0.0 0.0 0.00 0.00 0.00 51 1011.1
20260509121529 21 103 0.0 0.0 0.00 0.00 0.00 49 1011.2
20260509120008 21 213 0.0 0.0 0.00 0.00 0.00 52 1011.5
20260509114610 21 165 0.0 1.6 0.00 0.00 0.00 58 1011.7
20260509113052 21 33 0.0 0.0 0.00 0.00 0.00 53 1011.9
20260509111600 20 146 0.0 0.0 0.00 0.00 0.00 48 1012.1
20260509104552 19 30 0.0 0.0 0.00 0.00 0.00 59 1012.5
20260509103056 19 74 0.0 0.0 0.00 0.00 0.00 64 1012.8
20260509101555 18 173 0.0 0.0 0.00 0.00 0.00 65 1012.8
20260509100045 18 135 0.0 0.0 0.00 0.00 0.00 61 1013.0
20260509094611 17 80 0.0 0.0 0.00 0.00 0.00 61 1013.1
20260509093054 17 224 0.0 0.0 0.00 0.00 0.00 65 1013.2
20260509091549 16 165 0.0 0.0 0.00 0.00 0.00 68 1013.3
20260509090004 16 136 0.0 0.0 0.00 0.00 0.00 71 1013.4